Miscellaneous Local Product
Issued by NWS Hastings, NE

Home | Current Version | Previous Version | Graphics & Text | Print | Product List | Glossary On
Versions: 1 2 3 4 5 6 7 8 9 10 11 12 13 14 15 16 17 18 19 20 21 22 23 24 25 26 27 28 29 30 31 32 33 34 35 36 37 38 39 40 41 42 43 44 45 46 47 48 49 50
818
AXUS43 KGID 221602
MISGRI

GID CWA HOURLY WEATHER ROUNDUP
NATIONAL WEATHER SERVICE HASTINGS NE
1100 AM CDT WED MAR 22 2017

NOTE: "FAIR" INDICATES FEW OR NO CLOUDS BELOW 12,000 FEET WITH NO
SIGNIFICANT WEATHER AND/OR OBSTRUCTIONS TO VISIBILITY.

...SOUTH CENTRAL NEBRASKA...

CITY           SKY/WX    TMP DP  RH WIND       PRES   REMARKS
GRAND ISLAND   CLOUDY    39  24  55 SE14      30.31F WCI  31
HASTINGS       PTSUNNY   39  23  52 SE16      30.31F WCI  30
KEARNEY        CLOUDY    39  21  48 SE18      30.28F WCI  30
ORD            CLOUDY    37  24  59 S16G24    30.27F WCI  28
YORK           CLOUDY    39  19  45 SE15      30.33F WCI  31
AURORA         CLOUDY    40  22  49 SE17      30.31F WCI  31
LEXINGTON      CLOUDY    40  24  53 SE12      30.25F WCI  33
HOLDREGE       CLOUDY    38  23  54 SE17      30.27F WCI  29
HEBRON         CLOUDY    42  22  45 E12G18    30.34F

...NEBRASKA PANHANDLE...

CITY           SKY/WX    TMP DP  RH WIND       PRES   REMARKS
CHADRON        CLOUDY    48  34  58 S30G36    29.95F
ALLIANCE       CLOUDY    40  32  73 S23G31    30.03F WCI  30
SCOTTSBLUFF    CLOUDY    48  29  47 S17G23    30.01F
SIDNEY         MOSUNNY   43  33  68 S26G36    30.06F

...WESTERN AND NORTH CENTRAL NEBRASKA...

CITY           SKY/WX    TMP DP  RH WIND       PRES   REMARKS
VALENTINE      CLOUDY    38  28  67 S20G29    30.14F WCI  28
AINSWORTH      CLOUDY    34  30  85 S18G26    30.18F WCI  23
ONEILL         CLOUDY    33  27  80 SE16      30.27F WCI  22
BROKEN BOW     CLOUDY    39  26  59 S18       30.22F WCI  30
IMPERIAL       MOSUNNY   43  27  53 S20G25    30.16F
NORTH PLATTE   CLOUDY    40  24  53 S18G24    30.19F WCI  31
MCCOOK         CLOUDY    39  25  57 SE14      30.22F WCI  31

...EASTERN NEBRASKA...

CITY           SKY/WX    TMP DP  RH WIND       PRES   REMARKS
NORFOLK        CLOUDY    32  23  69 SE14      30.34F WCI  22
SO SIOUX CITY  CLOUDY    33  20  58 SE10      30.43S WCI  25
TEKAMAH        CLOUDY    36  22  56 SE12      30.44R WCI  28
COLUMBUS       CLOUDY    37  19  48 SE15G21   30.36F WCI  28
ALBION         CLOUDY    38  23  53 SE15G22   30.32F WCI  30
OMAHA EPPLEY   PTSUNNY   36  22  56 SE6       30.44R WCI  31
OFFUTT AFB     CLOUDY    36  22  56 E6        30.43R WCI  31
MILLARD        CLOUDY    37  24  58 SE8       30.43R WCI  31
LINCOLN        CLOUDY    41  19  41 SE12      30.40F
NEBRASKA CITY  MOSUNNY   40  13  34 E6        30.41R
BEATRICE       SUNNY     44  21  41 SE12G17   30.37F
FALLS CITY     CLOUDY    43  21  41 SE10      30.39S

...NORTHERN KANSAS...

CITY           SKY/WX    TMP DP  RH WIND       PRES   REMARKS
GOODLAND       CLOUDY    41  30  65 S18       30.17F
HILL CITY      CLOUDY    44  25  47 SE10      30.27F
NORTON         CLOUDY    39  21  48 SE13      30.25  WCI  32
PHILLIPSBURG   CLOUDY    43  25  49 E12       30.29S
HAYS             N/A     44  25  47 E12       30.28F
RUSSELL        CLOUDY    45  25  45 E12       30.27F
CONCORDIA      PTSUNNY   43  24  47 SE17      30.33S
SALINA         SUNNY     49  23  36 E15       30.31F
TOPEKA         SUNNY     47  24  40 E12       30.36R



USA.gov is the U.S. government's official web portal to all federal, state and local government web resources and services.